TimeCDT,TemperatureF,Dew PointF,Humidity,Sea Level PressureIn,VisibilityMPH,Wind Direction,Wind SpeedMPH,Gust SpeedMPH,PrecipitationIn,Events,Conditions,WindDirDegrees,DateUTC
12:15 AM,54.0,44.8,71,30.14,10.0,East,8.1,-,N/A,,Overcast,90,2013-05-27 05:15:00
12:35 AM,53.8,43.3,68,30.13,10.0,East,9.2,-,N/A,,Overcast,90,2013-05-27 05:35:00
12:55 AM,53.6,43.0,67,30.13,10.0,East,6.9,-,N/A,,Overcast,100,2013-05-27 05:55:00
1:15 AM,53.6,43.0,67,30.13,10.0,ESE,6.9,-,N/A,,Overcast,110,2013-05-27 06:15:00
1:35 AM,53.4,43.2,68,30.11,10.0,ESE,8.1,-,N/A,,Overcast,110,2013-05-27 06:35:00
1:55 AM,53.6,41.0,62,30.11,10.0,East,9.2,-,N/A,,Overcast,90,2013-05-27 06:55:00
2:15 AM,53.1,40.5,62,30.10,10.0,East,9.2,-,N/A,,Overcast,90,2013-05-27 07:15:00
2:35 AM,53.1,40.3,62,30.10,10.0,ESE,5.8,-,N/A,,Overcast,110,2013-05-27 07:35:00
2:55 AM,53.1,41.0,64,30.09,10.0,East,6.9,-,N/A,,Overcast,80,2013-05-27 07:55:00
3:15 AM,52.7,41.2,65,30.07,10.0,East,6.9,-,N/A,,Overcast,80,2013-05-27 08:15:00
3:35 AM,52.7,40.1,62,30.07,10.0,East,8.1,-,N/A,,Overcast,80,2013-05-27 08:35:00
3:55 AM,52.2,39.4,62,30.07,10.0,East,9.2,-,N/A,,Overcast,80,2013-05-27 08:55:00
4:15 AM,51.8,39.2,62,30.06,10.0,East,10.4,-,N/A,,Overcast,90,2013-05-27 09:15:00
4:35 AM,51.8,39.2,62,30.07,10.0,East,8.1,-,N/A,,Overcast,90,2013-05-27 09:35:00
4:55 AM,51.6,39.2,63,30.06,10.0,East,9.2,-,N/A,,Overcast,80,2013-05-27 09:55:00
5:15 AM,51.4,39.0,63,30.05,10.0,East,8.1,-,N/A,,Overcast,80,2013-05-27 10:15:00
5:35 AM,51.4,39.7,64,30.06,10.0,East,5.8,-,N/A,,Overcast,80,2013-05-27 10:35:00
5:55 AM,51.4,40.1,65,30.06,10.0,ENE,6.9,-,N/A,,Overcast,70,2013-05-27 10:55:00
6:15 AM,51.8,40.3,65,30.05,10.0,East,6.9,-,N/A,,Overcast,90,2013-05-27 11:15:00
6:35 AM,52.0,40.8,66,30.06,10.0,East,8.1,-,N/A,,Overcast,80,2013-05-27 11:35:00
6:55 AM,52.2,41.0,66,30.06,10.0,East,6.9,-,N/A,,Overcast,90,2013-05-27 11:55:00
7:15 AM,52.7,41.9,67,30.06,10.0,East,8.1,-,N/A,,Overcast,100,2013-05-27 12:15:00
7:35 AM,52.5,44.8,75,30.07,10.0,East,8.1,-,N/A,,Overcast,100,2013-05-27 12:35:00
7:55 AM,52.0,46.4,81,30.06,10.0,East,6.9,-,N/A,,Overcast,80,2013-05-27 12:55:00
8:15 AM,51.4,48.0,88,30.04,3.0,East,9.2,-,N/A,,Overcast,90,2013-05-27 13:15:00
8:35 AM,51.8,49.1,90,30.04,2.5,East,10.4,-,N/A,,Overcast,100,2013-05-27 13:35:00
8:55 AM,52.0,49.3,90,30.04,2.5,East,12.7,-,N/A,,Overcast,100,2013-05-27 13:55:00
9:15 AM,52.2,50.0,92,30.03,1.8,ESE,10.4,-,N/A,,Overcast,110,2013-05-27 14:15:00
9:35 AM,52.7,50.2,91,30.02,1.5,East,11.5,17.3,N/A,,Overcast,100,2013-05-27 14:35:00
9:55 AM,52.7,50.4,92,30.00,1.5,East,11.5,-,N/A,Rain,Light Rain,100,2013-05-27 14:55:00
10:35 AM,52.7,50.4,92,29.99,1.8,East,12.7,21.9,N/A,,Overcast,90,2013-05-27 15:35:00
10:55 AM,52.7,50.5,92,30.01,4.0,ESE,9.2,-,N/A,,Overcast,110,2013-05-27 15:55:00
11:15 AM,52.7,50.4,92,30.02,4.0,ESE,11.5,19.6,N/A,,Overcast,120,2013-05-27 16:15:00
11:35 AM,53.4,50.9,91,30.02,4.0,East,9.2,-,N/A,,Overcast,100,2013-05-27 16:35:00
11:55 AM,53.6,51.1,91,30.00,3.0,East,10.4,-,N/A,,Overcast,90,2013-05-27 16:55:00
12:15 PM,53.8,51.4,92,30.00,4.0,ESE,11.5,17.3,N/A,,Overcast,110,2013-05-27 17:15:00
12:35 PM,54.1,51.4,91,29.99,5.0,East,13.8,-,N/A,,Overcast,80,2013-05-27 17:35:00
12:55 PM,54.5,51.3,89,29.98,5.0,East,16.1,21.9,N/A,,Overcast,100,2013-05-27 17:55:00
1:15 PM,54.9,51.4,88,29.97,7.0,East,17.3,24.2,N/A,,Overcast,90,2013-05-27 18:15:00
1:35 PM,54.7,51.3,88,29.97,5.0,East,13.8,21.9,N/A,,Overcast,100,2013-05-27 18:35:00
1:55 PM,54.5,50.7,87,29.97,7.0,ESE,12.7,18.4,N/A,,Overcast,110,2013-05-27 18:55:00
2:15 PM,55.0,51.1,86,29.97,7.0,ESE,6.9,-,N/A,,Overcast,110,2013-05-27 19:15:00
2:35 PM,54.5,50.7,87,29.97,7.0,SE,9.2,-,N/A,,Overcast,130,2013-05-27 19:35:00
2:55 PM,54.5,50.9,88,29.97,7.0,ESE,10.4,-,N/A,,Overcast,110,2013-05-27 19:55:00
3:35 PM,54.0,51.1,90,29.96,5.0,East,6.9,-,N/A,,Light Drizzle,90,2013-05-27 20:35:00
3:55 PM,53.8,51.1,91,29.95,7.0,East,6.9,-,N/A,Rain,Light Rain,90,2013-05-27 20:55:00
4:15 PM,54.0,51.6,92,29.94,4.0,East,9.2,-,0.01,Rain,Light Rain,80,2013-05-27 21:15:00
4:35 PM,54.0,51.8,92,29.93,4.0,East,11.5,18.4,0.05,Rain,Light Rain,90,2013-05-27 21:35:00
4:55 PM,53.8,51.4,92,29.93,4.0,East,10.4,-,0.06,Rain,Light Rain,80,2013-05-27 21:55:00
5:15 PM,53.6,51.1,91,29.93,5.0,East,11.5,-,0.01,,Light Drizzle,80,2013-05-27 22:15:00
5:35 PM,52.7,50.4,92,29.93,5.0,East,11.5,-,0.01,Rain,Light Rain,90,2013-05-27 22:35:00
5:55 PM,52.2,50.0,92,29.92,4.0,East,15.0,19.6,0.01,,Light Drizzle,90,2013-05-27 22:55:00
6:15 PM,51.8,49.5,92,29.91,2.5,East,12.7,19.6,N/A,,Overcast,80,2013-05-27 23:15:00
6:35 PM,51.3,49.3,93,29.91,3.0,East,13.8,19.6,N/A,,Overcast,80,2013-05-27 23:35:00
6:55 PM,51.1,49.1,93,29.92,3.0,East,12.7,19.6,N/A,,Overcast,90,2013-05-27 23:55:00
7:15 PM,50.5,48.6,93,29.92,3.0,East,12.7,18.4,N/A,,Overcast,80,2013-05-28 00:15:00
7:35 PM,50.5,48.7,94,29.91,4.0,East,11.5,17.3,N/A,,Overcast,90,2013-05-28 00:35:00
7:55 PM,50.4,48.4,93,29.91,4.0,East,10.4,16.1,N/A,,Overcast,80,2013-05-28 00:55:00
8:15 PM,50.0,48.2,94,29.90,5.0,East,12.7,-,N/A,,Overcast,80,2013-05-28 01:15:00
8:35 PM,50.0,48.2,94,29.90,5.0,East,12.7,18.4,N/A,,Overcast,100,2013-05-28 01:35:00
8:55 PM,50.0,48.2,94,29.90,4.0,East,13.8,17.3,N/A,,Overcast,80,2013-05-28 01:55:00
9:15 PM,50.0,48.2,94,29.90,4.0,East,11.5,-,N/A,,Overcast,90,2013-05-28 02:15:00
9:35 PM,50.0,48.2,94,29.91,1.8,East,9.2,17.3,N/A,,Overcast,90,2013-05-28 02:35:00
9:55 PM,50.0,48.2,94,29.92,1.2,East,6.9,-,N/A,,Overcast,90,2013-05-28 02:55:00
10:35 PM,50.2,48.6,94,29.92,0.5,ESE,3.5,-,N/A,Fog,Fog,110,2013-05-28 03:35:00
10:55 PM,50.2,48.6,94,29.91,0.5,ESE,3.5,-,N/A,Fog,Fog,110,2013-05-28 03:55:00
11:15 PM,50.2,48.6,94,29.90,0.8,ESE,4.6,-,N/A,,Overcast,110,2013-05-28 04:15:00
11:35 PM,50.2,48.6,94,29.89,0.8,ESE,6.9,-,N/A,,Overcast,110,2013-05-28 04:35:00
11:55 PM,50.0,48.6,95,29.89,0.8,East,8.1,-,N/A,,Overcast,100,2013-05-28 04:55:00